Minden, LA

6:26 AM CDT on May 27, 2017 (GMT -0500)
Minden

Weather History for KMNE - December, 2013

Change the Weather History Date:

Thursday, December 26, 2013

  Actual Average (KBAD) Record (KBAD)
Temperature  
Mean Temperature 44 °F -  
Max Temperature 57 °F 55 °F 80 °F (2015)
Min Temperature 32 °F 35 °F 19 °F (1998)
Degree Days  
Heating Degree Days 20    
Moisture  
Dew Point 35 °F    
Average Humidity 73    
Maximum Humidity 96    
Minimum Humidity 44    
Precipitation  
Precipitation 0.00 in - - ()
Sea Level Pressure  
Sea Level Pressure 30.38 in    
Wind  
Wind Speed 1 mph (ENE)    
Max Wind Speed 9 mph    
Max Gust Speed -    
Visibility 10 miles    
Events      
Averages and records for this station are not official NWS values.
T = Trace of Precipitation, MM = Missing Value Source: NWS Daily Summary

Daily Weather History Graph

Daily Weather History Graph

Search for Another Location

Airport or City:

Trip Planner

Search our weather history database for the weather conditions in past years. The results will help you decide how hot, cold, wet, or windy it might be!

Date:

Astronomy

Dec. 26, 2013 Rise Set
Actual Time 7:13 AM CST 5:14 PM CST
Civil Twilight 6:46 AM CST 5:41 PM CST
Nautical Twilight 6:15 AM CST 6:12 PM CST
Astronomical Twilight 5:45 AM CST 6:42 PM CST
Moon 12:57 AM CST (12/26) 12:37 PM CST (12/26)
Length of Visible Light 10h 55m
Length of Day
10h 00m
Last Quarter, 38% of the Moon is Illuminated
Dec 26
Last Quarter
Jan 1
New
Jan 7
First Quarter
Jan 15
Full
Jan 23
Last Quarter

Hourly Weather History & Observations

Time (CST) Temp. Windchill Dew Point Humidity Pressure Visibility Wind Dir Wind Speed Gust Speed Precip Events Conditions
12:15 AM 40.8 °F - 37.4 °F 88% 30.35 in 10.0 mi Calm Calm - N/A   Clear
12:35 AM 39.6 °F - 36.1 °F 88% 30.36 in 10.0 mi Calm Calm - N/A   Clear
12:55 AM 39.7 °F - 37.2 °F 91% 30.37 in 10.0 mi Calm Calm - N/A   Clear
1:15 AM 39.6 °F - 36.7 °F 89% 30.37 in 10.0 mi Calm Calm - N/A   Clear
1:35 AM 38.3 °F - 36.0 °F 91% 30.37 in 10.0 mi Calm Calm - N/A   Clear
1:55 AM 38.3 °F - 36.5 °F 93% 30.37 in 10.0 mi Calm Calm - N/A   Clear
2:15 AM 38.1 °F - 36.1 °F 93% 30.37 in 10.0 mi Calm Calm - N/A   Clear
2:35 AM 37.4 °F - 35.6 °F 93% 30.38 in 10.0 mi Calm Calm - N/A   Clear
2:55 AM 35.8 °F - 34.2 °F 94% 30.38 in 10.0 mi Calm Calm - N/A   Clear
3:15 AM 36.9 °F - 35.4 °F 95% 30.38 in 10.0 mi Calm Calm - N/A   Clear
3:35 AM 35.8 °F - 34.3 °F 94% 30.37 in 7.0 mi Calm Calm - N/A   Clear
3:55 AM 34.7 °F - 33.3 °F 94% 30.38 in 10.0 mi Calm Calm - N/A   Clear
4:15 AM 34.5 °F - 33.1 °F 94% 30.37 in 10.0 mi Calm Calm - N/A   Clear
4:35 AM 34.2 °F - 32.9 °F 95% 30.37 in 7.0 mi Calm Calm - N/A   Clear
4:55 AM 33.1 °F - 32.0 °F 96% 30.37 in 10.0 mi Calm Calm - N/A   Clear
5:15 AM 32.9 °F 29.8 °F 32.0 °F 96% 30.37 in 10.0 mi North 3.5 mph - N/A   Clear
5:35 AM 34.0 °F 31.0 °F 32.9 °F 96% 30.37 in 10.0 mi North 3.5 mph - N/A   Clear
5:55 AM 33.3 °F - 32.2 °F 96% 30.38 in 10.0 mi Calm Calm - N/A   Clear
6:15 AM 33.8 °F 30.8 °F 32.4 °F 94% 30.39 in 7.0 mi North 3.5 mph - N/A   Clear
6:35 AM 33.8 °F - 32.5 °F 95% 30.40 in 10.0 mi Calm Calm - N/A   Clear
6:55 AM 33.8 °F 30.8 °F 32.4 °F 94% 30.40 in 10.0 mi NE 3.5 mph - N/A   Clear
7:15 AM 36.5 °F 33.9 °F 33.8 °F 90% 30.40 in 10.0 mi East 3.5 mph - N/A   Clear
7:35 AM 38.7 °F 35.2 °F 34.2 °F 84% 30.40 in 10.0 mi East 4.6 mph - N/A   Clear
7:55 AM 40.8 °F 38.8 °F 34.7 °F 79% 30.41 in 10.0 mi ENE 3.5 mph - N/A   Clear
8:15 AM 42.1 °F 38.4 °F 34.9 °F 76% 30.41 in 10.0 mi ENE 5.8 mph - N/A   Clear
8:35 AM 42.8 °F 39.3 °F 35.4 °F 75% 30.42 in 10.0 mi East 5.8 mph - N/A   Clear
8:55 AM 43.9 °F 40.5 °F 36.0 °F 74% 30.42 in 10.0 mi East 5.8 mph - N/A   Clear
9:15 AM 45.5 °F 41.8 °F 35.8 °F 69% 30.43 in 10.0 mi East 6.9 mph - N/A   Clear
9:35 AM 46.8 °F - 35.6 °F 65% 30.44 in 10.0 mi East 9.2 mph - N/A   Clear
9:55 AM 47.8 °F - 35.8 °F 63% 30.45 in 10.0 mi East 6.9 mph - N/A   Clear
10:15 AM 49.6 °F - 36.0 °F 59% 30.45 in 10.0 mi East 6.9 mph - N/A   Clear
10:35 AM 50.2 °F - 35.6 °F 57% 30.45 in 10.0 mi East 6.9 mph - N/A   Clear
10:55 AM 51.1 °F - 36.1 °F 57% 30.44 in 10.0 mi ENE 4.6 mph - N/A   Clear
11:15 AM 52.3 °F - 36.0 °F 54% 30.43 in 10.0 mi ESE 4.6 mph - N/A   Clear
11:35 AM 53.6 °F - 36.0 °F 51% 30.42 in 10.0 mi Calm Calm - N/A   Clear
11:55 AM 55.0 °F - 35.8 °F 48% 30.41 in 10.0 mi Calm Calm - N/A   Clear
12:15 PM 55.2 °F - 36.1 °F 49% 30.40 in 10.0 mi ESE 4.6 mph - N/A   Clear
12:35 PM 55.2 °F - 35.2 °F 47% 30.38 in 10.0 mi Calm Calm - N/A   Clear
12:55 PM 56.5 °F - 35.6 °F 46% 30.37 in 10.0 mi East 3.5 mph - N/A   Clear
1:15 PM 56.7 °F - 35.6 °F 45% 30.36 in 10.0 mi East 3.5 mph - N/A   Clear
1:35 PM 56.5 °F - 35.4 °F 45% 30.35 in 10.0 mi Calm Calm - N/A   Clear
1:55 PM 57.6 °F - 36.0 °F 44% 30.34 in 10.0 mi ESE 3.5 mph - N/A   Clear
2:15 PM 57.0 °F - 35.8 °F 45% 30.33 in 10.0 mi SSE 3.5 mph - N/A   Clear
2:35 PM 57.2 °F - 36.0 °F 45% 30.34 in 10.0 mi Calm Calm - N/A   Clear
2:55 PM 57.6 °F - 36.3 °F 45% 30.33 in 10.0 mi Calm Calm - N/A   Clear
3:15 PM 57.7 °F - 35.8 °F 44% 30.33 in 10.0 mi NW 3.5 mph - N/A   Clear
3:35 PM 57.7 °F - 36.0 °F 44% 30.34 in 10.0 mi NE 3.5 mph - N/A   Clear
3:55 PM 56.7 °F - 35.6 °F 45% 30.34 in 10.0 mi NE 4.6 mph - N/A   Clear
4:15 PM 56.1 °F - 36.5 °F 48% 30.34 in 10.0 mi NE 3.5 mph - N/A   Clear
4:35 PM 54.9 °F - 36.3 °F 50% 30.35 in 10.0 mi Calm Calm - N/A   Clear
4:55 PM 54.0 °F - 36.7 °F 52% 30.36 in 10.0 mi East 3.5 mph - N/A   Clear
5:15 PM 52.0 °F - 37.4 °F 58% 30.36 in 10.0 mi ENE 3.5 mph - N/A   Clear
5:35 PM 50.2 °F - 37.9 °F 63% 30.36 in 10.0 mi Calm Calm - N/A   Clear
5:55 PM 47.8 °F - 38.1 °F 69% 30.37 in 7.0 mi Calm Calm - N/A   Clear
6:15 PM 46.2 °F - 38.3 °F 74% 30.37 in 10.0 mi Calm Calm - N/A   Clear
6:35 PM 45.7 °F - 37.9 °F 74% 30.37 in 10.0 mi Calm Calm - N/A   Clear
6:55 PM 44.6 °F - 37.9 °F 77% 30.38 in 10.0 mi Calm Calm - N/A   Clear
7:15 PM 45.5 °F - 37.0 °F 72% 30.39 in 10.0 mi Calm Calm - N/A   Clear
7:35 PM 44.8 °F - 36.9 °F 74% 30.39 in 10.0 mi Calm Calm - N/A   Clear
7:55 PM 46.6 °F - 36.5 °F 68% 30.39 in 10.0 mi Calm Calm - N/A   Clear
8:15 PM 46.2 °F - 36.0 °F 67% 30.39 in 10.0 mi Calm Calm - N/A   Clear
8:35 PM 45.1 °F - 36.1 °F 71% 30.40 in 10.0 mi Calm Calm - N/A   Clear
8:55 PM 44.1 °F 42.5 °F 35.8 °F 73% 30.39 in 10.0 mi East 3.5 mph - N/A   Clear
9:15 PM 42.1 °F - 36.1 °F 79% 30.40 in 10.0 mi Calm Calm - N/A   Clear
9:35 PM 38.3 °F - 34.9 °F 87% 30.41 in 10.0 mi Calm Calm - N/A   Clear
9:55 PM 39.0 °F - 35.6 °F 88% 30.40 in 10.0 mi Calm Calm - N/A   Clear
10:15 PM 39.2 °F - 35.6 °F 87% 30.40 in 10.0 mi Calm Calm - N/A   Clear
10:35 PM 37.8 °F - 34.9 °F 89% 30.40 in 10.0 mi Calm Calm - N/A   Clear
10:55 PM 37.6 °F - 34.7 °F 89% 30.40 in 10.0 mi Calm Calm - N/A   Clear
11:15 PM 37.6 °F - 34.3 °F 88% 30.40 in 10.0 mi Calm Calm - N/A   Clear
11:35 PM 37.6 °F - 33.8 °F 86% 30.40 in 10.0 mi Calm Calm - N/A   Clear
11:55 PM 36.1 °F - 33.3 °F 89% 30.40 in 10.0 mi Calm Calm - N/A   Clear